FW8079 Weather Reports


time (UTC)temp
C
wind
direction
speed
KPH
gust
KPH
rain 1hr
cm
rain 24hr
cm
rain mn
cm
humidity
%
barometer
mb
20260504120208 13 82 4.8 4.8 0.00 0.00 0.00 60 1012.0
20260504110635 11 28 0.0 6.4 0.00 0.00 0.00 63 1012.5
20260504110131 11 269 0.0 4.8 0.00 0.00 0.00 63 1012.4
20260504100551 11 141 3.2 9.7 0.00 0.00 0.00 68 1012.5
20260504081945 12 11 0.0 4.8 0.00 0.00 0.00 64 1012.6
20260504081442 12 20 1.6 4.8 0.00 0.00 0.00 64 1012.5
20260504080938 12 94 1.6 3.2 0.00 0.00 0.00 63 1012.5
20260504080435 12 345 1.6 3.2 0.00 0.00 0.00 64 1012.7
20260504070403 11 331 0.0 3.2 0.00 0.00 0.00 65 1012.9
20260504050749 8 66 0.0 3.2 0.00 0.00 0.00 73 1013.0
20260504050247 8 359 1.6 1.6 0.00 0.00 0.00 73 1012.9
20260504045739 8 32 0.0 1.6 0.00 0.00 0.00 73 1012.8
20260504045233 8 55 0.0 1.6 0.00 0.00 0.00 73 1012.8
20260504044731 8 26 0.0 1.6 0.00 0.00 0.00 73 1013.1
20260504044228 8 56 1.6 1.6 0.00 0.00 0.00 72 1013.0
20260504043725 8 99 0.0 3.2 0.00 0.00 0.00 72 1012.9
20260504043222 8 46 0.0 3.2 0.00 0.00 0.00 71 1012.8
20260504042720 8 70 0.0 3.2 0.00 0.00 0.00 70 1012.8
20260504042216 8 81 1.6 3.2 0.00 0.00 0.00 72 1012.9
20260504041712 7 52 0.0 1.6 0.00 0.00 0.00 74 1012.8
20260504041208 7 52 0.0 1.6 0.00 0.00 0.00 75 1012.9
20260504040705 7 39 0.0 1.6 0.00 0.00 0.00 74 1012.9
20260504040202 7 66 0.0 3.2 0.00 0.00 0.00 75 1013.0
20260504035658 7 32 0.0 1.6 0.00 0.00 0.00 76 1012.8
20260504035156 7 89 0.0 1.6 0.00 0.00 0.00 77 1013.0
20260504034653 7 70 3.2 3.2 0.00 0.00 0.00 78 1012.7
20260504034150 7 100 0.0 3.2 0.00 0.00 0.00 79 1012.7
20260504033648 7 101 0.0 3.2 0.00 0.00 0.00 80 1012.7
20260504033145 7 44 0.0 3.2 0.00 0.00 0.00 79 1012.5
20260504032641 7 49 1.6 1.6 0.00 0.00 0.00 80 1012.8
20260504032139 7 1 0.0 1.6 0.00 0.00 0.00 80 1012.8
20260504031636 7 32 0.0 3.2 0.00 0.00 0.00 81 1012.5
20260504031132 7 32 0.0 1.6 0.00 0.00 0.00 82 1012.4
20260504030629 7 345 0.0 1.6 0.00 0.00 0.00 82 1012.6
20260504030125 8 22 0.0 1.6 0.00 0.00 0.00 81 1012.5
20260504025622 8 47 0.0 1.6 0.00 0.00 0.00 80 1012.6
20260504025119 8 55 0.0 1.6 0.00 0.00 0.00 80 1012.4
20260504024616 8 57 0.0 1.6 0.00 0.00 0.00 79 1012.6
20260504024113 8 323 1.6 1.6 0.00 0.00 0.00 79 1012.4
20260504023609 8 113 0.0 1.6 0.00 0.00 0.00 77 1012.5
20260504023105 8 44 0.0 1.6 0.00 0.00 0.00 75 1012.4
20260504022602 8 57 0.0 1.6 0.00 0.00 0.00 74 1012.5
20260504022058 8 335 0.0 1.6 0.00 0.00 0.00 77 1012.5
20260504021556 8 299 1.6 3.2 0.00 0.00 0.00 75 1012.4
20260504021052 8 32 0.0 1.6 0.00 0.00 0.00 76 1012.4
20260504020549 8 54 0.0 1.6 0.00 0.00 0.00 75 1012.4
20260504020046 9 352 0.0 1.6 0.00 0.00 0.00 75 1012.4
20260504015542 9 126 0.0 1.6 0.00 0.00 0.00 74 1012.5
20260504015038 9 113 0.0 1.6 0.00 0.00 0.00 75 1012.3
20260504014535 9 317 1.6 1.6 0.00 0.00 0.00 74 1012.3
20260504014032 9 38 0.0 1.6 0.00 0.00 0.00 73 1012.4
20260504013529 9 208 0.0 1.6 0.00 0.00 0.00 72 1012.2
20260504013026 9 41 1.6 1.6 0.00 0.00 0.00 68 1012.2
20260504012524 10 339 0.0 1.6 0.00 0.00 0.00 69 1012.0
20260504012022 10 28 1.6 1.6 0.00 0.00 0.00 67 1012.1
20260504011518 10 32 0.0 1.6 0.00 0.00 0.00 67 1011.9
20260504011014 10 345 0.0 1.6 0.00 0.00 0.00 66 1011.9
20260504010510 10 42 0.0 1.6 0.00 0.00 0.00 63 1012.0
20260504010006 10 113 0.0 1.6 0.00 0.00 0.00 64 1011.9
20260504005503 10 58 0.0 1.6 0.00 0.00 0.00 62 1011.9
20260504005000 11 38 1.6 1.6 0.00 0.00 0.00 61 1011.9
20260504004458 11 56 1.6 1.6 0.00 0.00 0.00 60 1012.1
20260504003955 11 146 0.0 1.6 0.00 0.00 0.00 59 1011.9
20260504003451 11 74 1.6 3.2 0.00 0.00 0.00 56 1011.5
20260504002948 11 52 1.6 1.6 0.00 0.00 0.00 55 1011.7
20260504002445 12 68 1.6 3.2 0.00 0.00 0.00 52 1011.9
20260504001942 12 40 0.0 3.2 0.00 0.00 0.00 50 1011.6
20260504001439 12 41 1.6 3.2 0.00 0.00 0.00 49 1011.4
20260504000936 12 35 1.6 3.2 0.00 0.00 0.00 48 1011.5
20260504000433 13 56 1.6 3.2 0.00 0.00 0.00 46 1011.6
20260503235930 13 66 0.0 3.2 0.00 0.00 0.00 45 1011.6
20260503235428 13 49 1.6 3.2 0.00 0.00 0.00 43 1011.3
20260503234925 14 41 0.0 3.2 0.00 0.00 0.00 43 1011.6
20260503234423 14 23 0.0 3.2 0.00 0.00 0.00 42 1011.4
20260503233921 15 37 0.0 3.2 0.00 0.00 0.00 41 1011.1
20260503233417 15 55 0.0 1.6 0.00 0.00 0.00 39 1011.2
20260503232913 15 217 0.0 3.2 0.00 0.00 0.00 39 1011.2
20260503232410 15 45 1.6 3.2 0.00 0.00 0.00 38 1011.0
20260503231908 16 348 0.0 4.8 0.00 0.00 0.00 36 1011.3
20260503231405 16 293 1.6 4.8 0.00 0.00 0.00 37 1011.1
20260503230902 16 5 1.6 4.8 0.00 0.00 0.00 35 1011.1
20260503230358 16 305 6.4 8.0 0.00 0.00 0.00 34 1011.2
20260503225856 16 16 3.2 9.7 0.00 0.00 0.00 36 1011.3
20260503225352 17 330 3.2 14.5 0.00 0.00 0.00 34 1011.0
20260503224848 16 304 8.0 17.7 0.00 0.00 0.00 33 1011.2
20260503224345 16 299 8.0 14.5 0.00 0.00 0.00 33 1011.1
20260503223843 16 313 1.6 11.3 0.00 0.00 0.00 36 1011.0
20260503223341 16 323 4.8 9.7 0.00 0.00 0.00 34 1011.1
20260503222836 16 309 3.2 9.7 0.00 0.00 0.00 34 1010.9
20260503222335 16 302 3.2 14.5 0.00 0.00 0.00 36 1011.3
20260503221832 16 314 3.2 24.1 0.00 0.00 0.00 34 1011.3
20260503221331 16 343 3.2 14.5 0.00 0.00 0.00 35 1011.1
20260503220826 16 353 3.2 8.0 0.00 0.00 0.00 37 1011.2
20260503220324 16 311 1.6 6.4 0.00 0.00 0.00 38 1011.4
20260503215820 16 316 8.0 14.5 0.00 0.00 0.00 35 1011.1
20260503215318 16 310 9.7 17.7 0.00 0.00 0.00 35 1011.1
20260503214815 16 307 9.7 14.5 0.00 0.00 0.00 37 1011.2
20260503214312 16 305 11.3 24.1 0.00 0.00 0.00 37 1011.2
20260503213810 16 297 8.0 22.5 0.00 0.00 0.00 35 1011.4
20260503213307 16 302 8.0 9.7 0.00 0.00 0.00 35 1011.2
20260503212804 16 292 6.4 11.3 0.00 0.00 0.00 37 1011.3
20260503212304 16 290 3.2 6.4 0.00 0.00 0.00 36 1011.2
20260503211759 16 323 3.2 14.5 0.00 0.00 0.00 36 1011.2
20260503211255 16 318 6.4 8.0 0.00 0.00 0.00 37 1011.1
20260503210755 16 319 9.7 9.7 0.00 0.00 0.00 37 1011.5
20260503210253 16 303 12.9 14.5 0.00 0.00 0.00 36 1011.1
20260503205748 16 0 6.4 11.3 0.00 0.00 0.00 39 1011.4
20260503205245 16 0 1.6 11.3 0.00 0.00 0.00 36 1011.1
20260503204741 16 329 1.6 12.9 0.00 0.00 0.00 36 1011.2
20260503204239 16 294 9.7 14.5 0.00 0.00 0.00 37 1011.2
20260503203736 16 339 6.4 16.1 0.00 0.00 0.00 38 1011.4
20260503203234 16 308 8.0 14.5 0.00 0.00 0.00 38 1011.5
20260503202731 16 165 4.8 14.5 0.00 0.00 0.00 36 1011.5
20260503202229 16 309 9.7 9.7 0.00 0.00 0.00 39 1011.3
20260503201726 16 7 3.2 14.5 0.00 0.00 0.00 38 1011.8
20260503201224 15 68 3.2 9.7 0.00 0.00 0.00 37 1011.6
20260503200720 15 351 4.8 22.5 0.00 0.00 0.00 38 1011.8
20260503200216 16 142 1.6 11.3 0.00 0.00 0.00 37 1011.8
20260503195713 16 6 4.8 16.1 0.00 0.00 0.00 39 1012.0
20260503195210 15 300 9.7 19.3 0.00 0.00 0.00 38 1012.0
20260503194707 15 300 4.8 9.7 0.00 0.00 0.00 38 1011.9
20260503194203 15 289 6.4 11.3 0.00 0.00 0.00 41 1012.0
20260503193700 16 292 6.4 17.7 0.00 0.00 0.00 37 1012.1
20260503193155 16 315 4.8 6.4 0.00 0.00 0.00 38 1012.1
20260503192651 15 266 4.8 9.7 0.00 0.00 0.00 39 1012.4
20260503192147 15 312 6.4 16.1 0.00 0.00 0.00 41 1012.3
20260503191644 15 355 3.2 14.5 0.00 0.00 0.00 40 1012.3
20260503191141 15 3 9.7 16.1 0.00 0.00 0.00 43 1012.2
20260503190638 16 299 11.3 17.7 0.00 0.00 0.00 36 1012.6
20260503190134 15 325 4.8 27.4 0.00 0.00 0.00 38 1012.7
20260503185631 16 22 1.6 11.3 0.00 0.00 0.00 38 1012.2
20260503185126 15 307 4.8 14.5 0.00 0.00 0.00 39 1012.4
20260503184622 15 114 0.0 19.3 0.00 0.00 0.00 41 1012.9
20260503184118 15 294 11.3 17.7 0.00 0.00 0.00 39 1012.9
20260503183615 16 292 1.6 6.4 0.00 0.00 0.00 39 1012.6
20260503183112 15 351 3.2 9.7 0.00 0.00 0.00 40 1012.7
20260503182611 15 297 16.1 20.9 0.00 0.00 0.00 37 1012.8
20260503182109 14 294 11.3 19.3 0.00 0.00 0.00 40 1012.9
20260503181605 14 341 4.8 17.7 0.00 0.00 0.00 40 1012.8
20260503181101 13 309 14.5 19.3 0.00 0.00 0.00 39 1012.9
20260503180559 15 307 11.3 19.3 0.00 0.00 0.00 39 1012.9
20260503180056 14 305 8.0 24.1 0.00 0.00 0.00 40 1012.8
20260503175553 14 320 6.4 9.7 0.00 0.00 0.00 39 1012.7
20260503175050 13 299 12.9 20.9 0.00 0.00 0.00 40 1013.0
20260503174547 15 309 1.6 6.4 0.00 0.00 0.00 40 1012.8
20260503174044 14 305 11.3 14.5 0.00 0.00 0.00 44 1013.0
20260503173539 15 19 3.2 12.9 0.00 0.00 0.00 42 1013.2
20260503173035 14 112 4.8 9.7 0.00 0.00 0.00 44 1013.2
20260503172533 13 55 17.7 20.9 0.00 0.00 0.00 41 1013.1
20260503172030 14 291 4.8 17.7 0.00 0.00 0.00 44 1013.0
20260503171526 13 308 3.2 9.7 0.00 0.00 0.00 42 1013.2
20260503171024 14 315 11.3 14.5 0.00 0.00 0.00 43 1013.2
20260503170520 13 316 8.0 11.3 0.00 0.00 0.00 40 1013.3
20260503150913 11 357 8.0 16.1 0.00 0.00 0.00 43 1013.7
20260503150409 11 304 11.3 14.5 0.00 0.00 0.00 47 1014.0
20260503131303 8 302 8.0 20.9 0.00 0.00 0.00 59 1014.0
20260503130800 8 3 6.4 14.5 0.00 0.00 0.00 57 1013.8
20260503130257 8 329 9.7 17.7 0.00 0.00 0.00 57 1013.9